This is the latest recevied weather packets stored in our database for station/object W0WC. If no packets are shown the sender has not sent any weather packets the latest 10 day(s).
| Time | Temp. | Humidity | Pressure | Rain* | Wind** | Luminosity | Snow |
|---|---|---|---|---|---|---|---|
| 1778113277 | 15° C | 44% | 1017.6 hPa | 0 mm | - | 58 W/m² | - |
| 1778112974 | 15° C | 44% | 1017.4 hPa | 0 mm | - | 70 W/m² | - |
| 1778112672 | 15° C | 45% | 1017.4 hPa | 0 mm | - | 71 W/m² | - |
| 1778112368 | 15° C | 45% | 1017.2 hPa | 0 mm | - | 52 W/m² | - |
| 1778112063 | 15° C | 44% | 1017.4 hPa | 0 mm | - | 47 W/m² | - |
| 1778111761 | 15.56° C | 43% | 1017.2 hPa | 0 mm | - | 88 W/m² | - |
| 1778111461 | 15.56° C | 43% | 1017 hPa | 0 mm | - | 110 W/m² | - |
| 1778111159 | 15.56° C | 42% | 1017 hPa | 0 mm | - | 125 W/m² | - |
| 1778110856 | 15.56° C | 44% | 1016.9 hPa | 0 mm | - | 157 W/m² | - |
| 1778110553 | 15.56° C | 43% | 1016.8 hPa | 0 mm | - | 121 W/m² | - |
| 1778110249 | 16.11° C | 43% | 1016.6 hPa | 0 mm | - | 158 W/m² | - |
| 1778109946 | 16.11° C | 43% | 1016.8 hPa | 0 mm | - | 180 W/m² | - |
| 1778109641 | 16.11° C | 43% | 1016.6 hPa | 0 mm | - | 193 W/m² | - |
| 1778109339 | 16.11° C | 43% | 1016.6 hPa | 0 mm | - | 212 W/m² | - |
| 1778109037 | 16.11° C | 43% | 1016.6 hPa | 0 mm | - | 220 W/m² | - |
| 1778108733 | 16.11° C | 43% | 1016.7 hPa | 0 mm | - | 242 W/m² | - |
| 1778108430 | 16.67° C | 44% | 1016.6 hPa | 0 mm | - | 257 W/m² | - |
| 1778108127 | 16.11° C | 43% | 1016.7 hPa | 0 mm | - | 259 W/m² | - |
| 1778107823 | 16.67° C | 42% | 1016.3 hPa | 0 mm | - | 266 W/m² | - |
| 1778107520 | 16.67° C | 42% | 1016.4 hPa | 0 mm | - | 283 W/m² | - |
| 1778107217 | 16.67° C | 43% | 1016.7 hPa | 0 mm | - | 320 W/m² | - |
| 1778106913 | 16.67° C | 42% | 1016.8 hPa | 0 mm | - | 348 W/m² | - |
| 1778106609 | 16.67° C | 43% | 1016.7 hPa | 0 mm | - | 369 W/m² | - |
| 1778106306 | 16.67° C | 42% | 1016.5 hPa | 0 mm | - | 407 W/m² | - |
| 1778106003 | 16.67° C | 42% | 1016.5 hPa | 0 mm | - | 252 W/m² | - |
* Rain latest hour (hover to see other rain measurements)
** Current wind speed in m/s (hover to see current wind gust speed)